This is the latest recevied weather packets stored in our database for station/object TULLARI. If no packets are shown the sender has not sent any weather packets the latest 10 day(s).
| Time | Temp. | Humidity | Pressure | Rain* | Wind** | Luminosity | Snow |
|---|---|---|---|---|---|---|---|
| 1777975643 | 7.22° C | 78% | 1005.5 hPa | - | - | - | - |
| 1777974443 | 7.22° C | 76% | 1005.2 hPa | - | - | - | - |
| 1777973243 | 7.22° C | 76% | 1004.9 hPa | - | - | - | - |
| 1777972043 | 7.22° C | 77% | 1004.6 hPa | - | - | - | - |
| 1777970844 | 7.22° C | 77% | 1004.3 hPa | - | - | - | - |
| 1777969643 | 7.22° C | 81% | 1004 hPa | - | - | - | - |
| 1777968443 | 7.22° C | 79% | 1003.8 hPa | - | - | - | - |
| 1777967243 | 7.78° C | 77% | 1003.2 hPa | - | - | - | - |
| 1777966043 | 7.22° C | 81% | 1003 hPa | - | - | - | - |
| 1777964842 | 6.67° C | 86% | 1002.7 hPa | - | - | - | - |
| 1777963642 | 6.67° C | 89% | 1002.5 hPa | - | - | - | - |
| 1777962442 | 6.67° C | 89% | 1002.1 hPa | - | - | - | - |
| 1777961243 | 6.11° C | 88% | 1001.9 hPa | - | - | - | - |
| 1777960042 | 6.11° C | 87% | 1001.8 hPa | - | - | - | - |
| 1777958843 | 6.11° C | 87% | 1001.7 hPa | - | - | - | - |
| 1777957642 | 6.11° C | 87% | 1001.6 hPa | - | - | - | - |
| 1777956442 | 6.11° C | 87% | 1001.4 hPa | - | - | - | - |
| 1777955242 | 6.11° C | 86% | 1001.3 hPa | - | - | - | - |
| 1777954042 | 6.11° C | 85% | 1001.2 hPa | - | - | - | - |
| 1777952843 | 6.11° C | 85% | 1001.1 hPa | - | - | - | - |
| 1777951642 | 6.67° C | 82% | 1001 hPa | - | - | - | - |
| 1777950442 | 6.11° C | 85% | 1001.1 hPa | - | - | - | - |
| 1777949242 | 6.11° C | 87% | 1001.2 hPa | - | - | - | - |
| 1777948042 | 6.11° C | 88% | 1001.3 hPa | - | - | - | - |
| 1777946842 | 6.11° C | 89% | 1001.6 hPa | - | - | - | - |
* Rain since midnight (hover to see other rain measurements)
** Current wind speed in m/s (hover to see current wind gust speed)